Regional Weather Roundup
Issued by NWS

Home | Current Version | Previous Version | Graphics & Text | Print | Product List | Glossary On
Versions: 1 2 3 4 5 6 7 8 9 10 11 12 13 14 15 16 17 18 19 20 21 22 23 24 25 26 27 28 29 30 31 32 33 34 35 36 37 38 39 40 41 42 43 44 45 46 47 48 49 50
000
ASUS45 KTFX 250210
RWRMT
MONTANA REGIONAL WEATHER ROUNDUP
NATIONAL WEATHER SERVICE GREAT FALLS MT
800 PM MDT FRI MAR 24 2017

NOTE: "FAIR" INDICATES FEW OR NO CLOUDS BELOW 12000 FEET WITH NO
SIGNIFICANT WEATHER AND/OR OBSTRUCTIONS TO VISIBILITY.

MTZ001>007-043-250300-
WEST OF THE DIVIDE

CITY           SKY/WX    TMP DP  RH WIND       PRES   REMARKS
KALISPELL      LGT RAIN  39  36  89 NW3       29.84R
MISSOULA       CLOUDY    48  36  63 SW6       29.89R
BUTTE          CLOUDY    49  26  41 SW8       29.87R
MULLAN PASS    SNOW      30  30 100 VRB6      29.83R VSB 1/4 WCI  24
ANACONDA         N/A     48  28  46 S15G22    29.87R
DEER LODGE       N/A     52  30  43 S7G18     29.85R
EUREKA           N/A     43  37  81 SE9       29.80R
HAMILTON         N/A     48  36  61 S6        29.90R
RONAN            N/A     43  35  73 CALM      29.91R
$$

MTZ008-052>055-250300-
SOUTHWEST MONTANA

CITY           SKY/WX    TMP DP  RH WIND       PRES   REMARKS
BOZEMAN        CLOUDY    54  23  30 W3        29.85R
DILLON         CLOUDY    50  25  37 S14       29.88R
W YELLOWSTONE  CLOUDY    41  21  45 S13G23    30.02S
ENNIS          MOCLDY    48  21  34 S29G40    29.95R
THREE FORKS      N/A     55  55 100 S22       29.85R
$$

MTZ009-010-012-014-046-048-049-054-250300-
EAST SLOPES AND CENTRAL MONTANA

CITY           SKY/WX    TMP DP  RH WIND       PRES   REMARKS
CUT BANK       CLOUDY    44  30  57 W20       29.73R
GREAT FALLS    CLOUDY    57  19  22 S20       29.72R
MALMSTROM AFB  CLOUDY    58  20  23 S22G28    29.71R
HELENA         CLOUDY    59  26  28 SW13      29.77R
AUGUSTA          N/A     49  28  45 SW21G30   29.76R
BOWMANS CRNR   MOCLDY    50  27  40 SW25G33   29.74R
CHOTEAU          N/A     52  27  37 SW9G20    29.76R
CONRAD           N/A     53  35  50 SW6       29.77R
FAIRFIELD      MOCLDY    54  24  30 W25       29.73R
POWER          MOCLDY    55  23  29 W14       29.72R
RAYNESFORD     MOCLDY    57  19  22 SW14G22   29.75R
$$

MTZ011-013-016-021-045-047-050-051-250300-
NORTH CENTRAL MONTANA

CITY           SKY/WX    TMP DP  RH WIND       PRES   REMARKS
HAVRE          CLOUDY    59  27  29 S6        29.68R
LEWISTOWN      CLOUDY    57  26  30 S12       29.76R
N BAR RANCH      N/A     54  28  37 S20G28    29.82R
CHINOOK          N/A     59  25  27 SE5       29.68S
DENTON         MOCLDY    58  20  22 SW12G17   29.70R
FORT BENTON      N/A     63  21  20 N6        29.70R
GEYSER         MOCLDY    56  20  24 SW13G20   29.74R
GRASS RANGE    MOCLDY    56  28  33 S12       29.74R
STANFORD       MOCLDY    56  18  23 SW17G28   29.76R
WINIFRED       MOCLDY    58  25  28 S16       29.72S
$$

MTZ017>020-022>027-061-062-250300-
NORTHEAST MONTANA

CITY           SKY/WX    TMP DP  RH WIND       PRES   REMARKS
GLASGOW        PTCLDY    51  30  44 SE14      29.81F
JORDAN           N/A     51  32  48 SE8       29.81F
SIDNEY         PTCLDY    53  35  50 S13       29.92S
WOLF POINT     PTCLDY    55  29  36 SE7       29.86S
MALTA          CLEAR     55  36  47 E7        29.74S
PLENTYWOOD       N/A     45  36  70 E15       29.92S
POPLAR           N/A     52  30  43 SE7       29.89R
SCOBEY           N/A     47  27  46 E10       29.86F
$$

MTZ028>42-056>058-250300-
SOUTHCENTRAL AND SOUTHEAST MONTANA

CITY           SKY/WX    TMP DP  RH WIND       PRES   REMARKS
BAKER          CLEAR     48  35  60 SE12      29.97S
BILLINGS       MOCLDY    58  30  34 S7        29.81S
LIVINGSTON     CLOUDY    55  16  21 SW31G44   29.81S
MILES CITY     CLOUDY    56  27  32 SE13      29.87F
BIG TIMBER     PTCLDY    55  19  24 W8        29.84S
EKALAKA          N/A     50  25  38 SE7       29.96
FORSYTH          N/A     55  30  38 SE9       29.85S
HARLOWTON      MOCLDY    53  21  28 S10       29.78R
LAUREL           N/A     54  25  32 W2        29.83R
$$

REGIONAL REPORTS...DAKOTAS

CITY           SKY/WX    TMP DP  RH WIND       PRES   REMARKS
WILLISTON      PTCLDY    44  32  62 E14G24    29.97R
MINOT          CLOUDY    32  28  85 E12       30.13R WCI  23
DICKINSON      CLEAR     43  32  65 SE17      30.02R
BEACH            N/A    N/A N/A N/A MISG        N/A
TIOGA            N/A     36  36 100 SE13      30.03S WCI  27
WATFORD CITY     N/A     46  36  66 SE21G28   29.98S
BISMARCK       CLEAR     36  32  85 E10       30.14S WCI  28
GRAND FORKS    PTCLDY    30  28  92 N6        30.23R WCI  24
FARGO          CLEAR     31  29  92 N6        30.20S WCI  25
BUFFALO SD       N/A     48  33  56 SE14      29.95R
RAPID CITY     CLEAR     45  29  53 SE7       30.05R
$$

REGIONAL REPORTS...WYOMING/IDAHO/WASHINGTON

CITY           SKY/WX    TMP DP  RH WIND       PRES   REMARKS
GILLETTE       CLEAR     46  32  58 S10       29.96F
SHERIDAN       CLOUDY    49  32  52 S5        29.86F
BUFFALO WY     CLOUDY    51  29  42 S18       29.91S
CODY           CLEAR     52  17  25 SW9       29.91S
YELLOWSTONE LA   N/A     37  19  48 VRB3      30.06S
IDAHO FALLS    CLOUDY    50  30  46 SW16G26   30.03R
SALMON         CLOUDY    50  30  46 SW10      29.90R
BOISE          LGT RAIN  47  44  90 W12G22    30.03R
SPOKANE        LGT RAIN  44  41  89 SW15G24   29.86R
$$

REGIONAL REPORTS...ALBERTA

CITY           SKY/WX    TMP DP  RH WIND       PRES   REMARKS
EDMONTON       CLEAR     34  30  86 NE7       29.68S WCI  28
CALGARY        CLOUDY    48  23  37 W5        29.59S
LETHBRIDGE     CLOUDY    48  30  49 SW12G17   29.69R
MEDICINE HAT   CLOUDY    52  28  40 SE8       29.67R
WATERTON GATE    N/A     39  32  75 SW24G35     N/A  WCI  28
CARDSTON         N/A     45  28  53 NE1         N/A
MILK RIVER       N/A     52  28  40 W30G37      N/A
$$

REGIONAL REPORTS...SASKATCHEWAN

CITY           SKY/WX    TMP DP  RH WIND       PRES   REMARKS
SWIFT CURRENT  CLOUDY    46  34  61 SE12      29.73F
REGINA         CLOUDY    34  30  86 SE23G33   29.93S WCI  22
SASKATOON      CLOUDY    39  30  70 E14       29.88F WCI  31
CYPRESS HILLS    N/A     48  19  32 S6          N/A
ASSINIBOIA       N/A     36  32  87 E14         N/A  WCI  27
$$



USA.gov is the U.S. government's official web portal to all federal, state and local government web resources and services.